Regional Weather Roundup
Issued by NWS

Home | Current Version | Previous Version | Text Only | Print | Product List | Glossary On
Versions: 1 2 3 4 5 6 7 8 9 10 11 12 13 14 15 16 17 18 19 20 21 22 23 24 25 26 27 28 29 30 31 32 33 34 35 36 37 38 39 40 41 42 43 44 45 46 47 48 49 50
000
ASUS44 KEWX 290202
RWRTX
SOUTH TEXAS REGIONAL WEATHER ROUNDUP
NATIONAL WEATHER SERVICE AUSTIN/SAN ANTONIO TX
800 PM CST WED JAN 28 2015

NOTE: "FAIR" INDICATED FEW OR NO CLOUDS BELOW 12,000 FEET WITH NO
SIGNIFICANT WEATHER AND/OR OBSTRUCTIONS TO VISIBILITY.

* - THESE STATIONS ARE NOT NWS OR FAA STATIONS...AND ARE NOT SUBJECT
    TO NWS AND FAA QUALITY CONTROL.

TXZ171-172-183>190-290300-
TEXAS HILL COUNTRY AND EDWARDS PLATEAU

CITY           SKY/WX    TMP DP  RH WIND       PRES   REMARKS
JUNCTION       CLEAR     67  37  33 S6        30.08R
*LLANO         CLEAR     63  39  42 CALM      30.11R
BURNET         CLEAR     65  37  35 S5        30.11R
*HORSESHOE BAY CLEAR     67  37  32 S5        30.08R
*KERRVILLE     CLEAR     64  39  40 SE5       30.11R
*FREDERICKSBRG CLEAR     58  38  47 CALM      30.10R
*ROCKSPRINGS   CLEAR     63  39  42 S7        30.12S
*BOERNE STAGE  CLEAR     55  32  41 S3        30.11R
*CASTROVILLE   CLEAR     67  38  34 SE6       30.10R
HONDO          CLEAR     65  39  38 SE8       30.11R
*UVALDE        CLEAR     64  39  40 SE3       30.08S
DEL RIO        CLEAR     72  40  31 SE10      30.03R
LAUGHLIN AFB   CLEAR     67  41  39 SE12      30.05R
CARRIZO SPRGS  PTCLDY    63  41  45 S5        30.06R
$$

TXZ173-191>194-202-209-217>225-228-290300-
CENTRAL AND SOUTH CENTRAL TEXAS

CITY           SKY/WX    TMP DP  RH WIND       PRES   REMARKS
GEORGETOWN     CLEAR     70  39  32 S8        30.08R
AUSTIN/BERGSTM CLEAR     59  42  53 S7        30.08R
AUSTIN/MABRY   CLEAR     68  40  35 S5        30.09R
*AUSTIN/EXEC   CLEAR     64  39  39 S8        30.08R
*LAGO VISTA    CLEAR     69  36  30 S8        30.10R
SAN MARCOS     CLEAR     64  37  36 S8        30.10R
NEW BRAUNFELS  CLEAR     57  41  55 S10       30.07S
RANDOLPH AFB   CLEAR     61  42  48 S8        30.09R
PT SAN ANTONIO CLEAR     63  44  49 S9        30.08R
SAN ANTONIO    PTCLDY    68  41  37 S9        30.09R
STINSON FIELD  CLEAR     66  42  41 SE7       30.07R
*PLEASANTON    CLEAR     67  45  43 SE7       30.09R
*LA GRANGE     CLEAR     64  51  61 S8        30.09S
*GIDDINGS      CLEAR     64  45  49 S5        30.14R
*GONZALES      CLEAR     67  46  47 S10       30.10R
$$

TXZ163>164-176>182-195>201-210>213-226-227-235-290300-
SOUTHEAST TEXAS

CITY           SKY/WX    TMP DP  RH WIND       PRES   REMARKS
COLLEGE STN    CLEAR     65  43  44 S12       30.10R
*BRYAN         CLEAR     65  44  45 S10       30.10S
*CALDWELL      CLEAR     64  43  45 SE12      30.12R
*CROCKETT      CLEAR     68  52  56 SE8       30.13S
*BRENHAM       CLEAR     67  48  52 S7        30.12R
HUNTSVILLE     CLEAR     66  45  46 S7        30.11R
CONROE         CLEAR     62  46  55 SE8       30.14R
HOUSTON BUSH   PTCLDY    64  53  67 S7        30.14S
HOUSTON HOBBY  PTCLDY    61  57  87 S9        30.15S
*HOUSTON SW AP CLEAR     55  53  91 SE5       30.17R
PEARLAND       CLEAR     62  58  86 S10       30.17S
HOUSTON HOOKS  CLEAR     65  51  60 S6        30.13R
ELLINGTON FLD  NOT AVBL
SUGAR LAND     CLEAR     57  51  80 S9        30.14S
*HOUSTON EXEC    N/A    N/A N/A N/A MISG        N/A
*CLEVELAND MUN   N/A     59  48  67 S3        30.15R
*WHARTON       CLEAR     57  55  92 SE6       30.16R
*COLUMBUS      FAIR      62  55  77 S7        30.12S
$$

TXZ214>216-236>238-290300-
THE UPPER TEXAS COAST

CITY           SKY/WX    TMP DP  RH WIND       PRES   REMARKS
*ORANGE        CLEAR     54  53  95 CALM      30.20S
PORT ARTHUR    CLEAR     54  53  97 SE5       30.17S
GALVESTON      CLEAR     59  59 100 S7        30.18R
ANGLETON       FOG       58  58 100 CALM      30.17R VSB 1
*BAY CITY      CLEAR     59  59 100 CALM      30.16S FOG
PALACIOS       CLEAR     59  57  93 SE7       30.16R
$$

TXZ229>234-239>247-290300-
TEXAS COASTAL BEND AND RIO GRANDE PLAINS

CITY           SKY/WX    TMP DP  RH WIND       PRES   REMARKS
VICTORIA         N/A     61  60  97 SE9       30.14S FOG
*BEEVILLE      CLEAR     61  59  93 SE7       30.12R
ROCKPORT       CLEAR     62  60  93 SE7       30.14R
*PORT ARANSAS  CLEAR     61  60  97 SE7       30.13R
*PORT LAVACA   CLEAR     58  56  96 SE6       30.15S
*INGLESIDE     CLEAR     63  61  94 SE9       30.12S
CORPUS CHRISTI PTCLDY    62  58  86 S10       30.13R
CORPUS NAS     PTCLDY    63  61  93 S12       30.13R
*ROBSTOWN      NOT AVBL
ALICE          CLEAR     63  58  83 SE9       30.10R
KINGSVILLE NAS PTCLDY    63  61  93 SE9       30.12R
COTULLA        PTCLDY    70  41  34 SE8       30.08R
*FAITH RANCH   PTCLDY    68  37  32 SE7       30.07R
LAREDO         NOT AVBL
$$

TXZ248>255-290300-
DEEP SOUTH TEXAS

CITY           SKY/WX    TMP DP  RH WIND       PRES   REMARKS
BROWNSVILLE    MOCLDY    64  61  90 SE7       30.14R
PORT ISABEL    MOCLDY    64  61  90 S8        30.13S
*SOUTH PADRE   MOCLDY    63  63 100 CALM      30.14S
HARLINGEN      PTCLDY    62  59  90 SE8       30.12S
*HEBBRONVILLE  MOCLDY    66  45  47 SE7       30.11R
MCALLEN        MOCLDY    66  59  78 SE14      30.12S
*WESLACO       PTCLDY    65  59  79 SE8       30.12F
FALFURRIAS     CLEAR     66  51  58 SE7       30.11R
EDINBURG       MOCLDY    67  57  70 SE9       30.11F
*ZAPATA        MOCLDY    71  43  36 SE7       30.07R
$$

TXZ213>215-236>238-242>244-246-247-251-254-255-290300-
CMAN STATIONS

STATION/POSITION TIME  TEMP    WIND        PRES    WAVE
                       AIR SEA DIR/SP/G            HT/PER
                 (UTC) (F)     (DEG/KT/KT) (MB)    (FT/S)
SABINE PASS      0100   57 56  170/  6/  8 1022.1
SEA RIM ST PARK  0100   58     150/  6/  7 1022.4
NORTH JETTY/GLS  0100   60 58  190/  7/  8   N/A
EAGLE POINT      0100   59 57   CALM  /  4 1021.5
MORGANS POINT    0100   60     180/  4/  5 1021.3
MISSION/ARANSAS  0100   61     VRB  6      1021.0
PORT O`CONNOR    0100          110/  4/  5   N/A
PORT ARANSAS     0100   63 61  140/ 11/ 12 1020.9
MALAQUITE BEACH  0100   62 63  140/ 13/ 14 1019.5
BAFFIN BAY       0100   63     150/ 12/ 15 1019.9
PORT ISABEL      0100   64 60  150/  7/  8 1020.5
$$

GMZ080-GMZ150>470-290300-
OFFSHORE BUOY REPORTS

STATION/POSITION TIME  TEMP    WIND        PRES    WAVE
                       AIR SEA DIR/SP/G            HT/PER
                 (UTC) (F)     (DEG/KT/KT) (MB)    (FT/S)
20 E GALVESTON   0200   59 57  140/  6/  6 1021.4    1
90 E PT ARANSAS  0200   68 69  160/ 12/ 12 1021.5    1/ 4
35 NE PT MANSFLD 0200   68 70  170/ 14/ 16 1020.2    1/ 4
200 E PT ISABEL  0200   70 73  110/  8/ 10 1022.1    1
$$


USA.gov is the U.S. government's official web portal to all federal, state and local government web resources and services.